Abilene Dyess, TX

4:42 AM CDT on July 26, 2017 (GMT -0500)
Dyess Air Force Base

Weather History for KDYS - July, 2012

Change the Weather History Date:

Tuesday, July 10, 2012

  Actual Average Record
Temperature  
Mean Temperature 82 °F -  
Max Temperature 92 °F 94 °F 104 °F (1998)
Min Temperature 72 °F 72 °F 68 °F (2017)
Cooling Degree Days 16    
Growing Degree Days 32 (Base 50)    
Moisture  
Dew Point 70 °F    
Average Humidity 80    
Maximum Humidity 95    
Minimum Humidity 43    
Precipitation  
Precipitation 0.10 in - - ()
Sea Level Pressure  
Sea Level Pressure 29.92 in    
Wind  
Wind Speed 6 mph (NNE)    
Max Wind Speed 22 mph    
Max Gust Speed 29 mph    
Visibility 8 miles    
Events Rain , Thunderstorm    
Averages and records for this station are not official NWS values.
T = Trace of Precipitation, MM = Missing Value Source: NWS Daily Summary

Daily Weather History Graph

Daily Weather History Graph

Search for Another Location

Airport or City:

Trip Planner

Search our weather history database for the weather conditions in past years. The results will help you decide how hot, cold, wet, or windy it might be!

Date:

Astronomy

Jul. 10, 2012 Rise Set
Actual Time 6:40 AM CDT 8:49 PM CDT
Civil Twilight 6:12 AM CDT 9:16 PM CDT
Nautical Twilight 5:38 AM CDT 9:51 PM CDT
Astronomical Twilight 5:01 AM CDT 10:27 PM CDT
Moon 12:32 AM CDT (7/10) 1:39 PM CDT (7/10)
Length of Visible Light 15h 04m
Length of Day
14h 08m
Waning Gibbous, 54% of the Moon is Illuminated
Jul 10
Waning Gibbous
Jul 10
Last Quarter
Jul 18
New
Jul 26
First Quarter
Aug 1
Full

Hourly Weather History & Observations

Time (CDT) Temp. Heat Index Dew Point Humidity Pressure Visibility Wind Dir Wind Speed Gust Speed Precip Events Conditions
12:55 AM 75.9 °F - 71.6 °F 86% 29.93 in 10.0 mi Calm Calm - N/A   Scattered Clouds
1:55 AM 73.6 °F - 71.6 °F 93% 29.93 in 10.0 mi Calm Calm - N/A   Clear
2:55 AM 73.2 °F - 71.8 °F 95% 29.91 in 10.0 mi WNW 3.5 mph - N/A   Partly Cloudy
3:55 AM 73.0 °F - 70.7 °F 92% 29.93 in 10.0 mi NW 4.6 mph - N/A   Overcast
4:55 AM 72.9 °F - 70.2 °F 91% 29.92 in 10.0 mi NNW 4.6 mph - N/A   Mostly Cloudy
5:55 AM 73.2 °F - 70.3 °F 91% 29.93 in 10.0 mi NNE 9.2 mph - N/A   Scattered Clouds
6:55 AM 72.1 °F - 69.6 °F 92% 29.95 in 9.0 mi NNW 3.5 mph - N/A   Partly Cloudy
7:55 AM 73.9 °F - 70.3 °F 88% 29.96 in 10.0 mi NE 3.5 mph - N/A   Clear
8:55 AM 76.1 °F - 70.9 °F 84% 29.97 in 10.0 mi NNE 10.4 mph - N/A   Clear
9:55 AM 77.9 °F - 70.9 °F 79% 29.97 in 10.0 mi North 6.9 mph - N/A   Clear
10:55 AM 82.9 °F 86.7 °F 69.6 °F 64% 29.97 in 10.0 mi NNE 5.8 mph - N/A   Clear
11:55 AM 85.1 °F 89.1 °F 69.4 °F 59% 29.96 in 10.0 mi Variable 4.6 mph - N/A   Partly Cloudy
12:55 PM 87.1 °F 90.9 °F 68.5 °F 54% 29.94 in 10.0 mi North 9.2 mph - N/A   Mostly Cloudy
1:55 PM 88.9 °F 93.0 °F 68.7 °F 51% 29.91 in 10.0 mi NNE 8.1 mph - N/A   Scattered Clouds
2:55 PM 91.4 °F 94.0 °F 66.2 °F 43% 29.87 in 10.0 mi North 9.2 mph - N/A Thunderstorm Scattered Clouds
3:27 PM 84.2 °F 88.4 °F 69.8 °F 62% 29.89 in 10.0 mi ESE 21.9 mph 28.8 mph N/A Thunderstorm Thunderstorm
3:55 PM 83.5 °F 86.7 °F 68.2 °F 60% 29.88 in 10.0 mi South 11.5 mph - N/A Thunderstorm Thunderstorm
4:03 PM 80.6 °F 83.2 °F 68.0 °F 65% 29.88 in 10.0 mi South 9.2 mph - N/A Thunderstorm Partly Cloudy
4:55 PM 85.6 °F 88.8 °F 67.6 °F 55% 29.87 in 10.0 mi South 4.6 mph - N/A   Partly Cloudy
5:14 PM 86.0 °F 90.4 °F 69.8 °F 58% 29.88 in 10.0 mi Variable 5.8 mph - N/A Rain Rain
5:27 PM 80.6 °F 83.2 °F 68.0 °F 65% 29.88 in 10.0 mi North 17.3 mph 27.6 mph N/A   Mostly Cloudy
5:41 PM 78.8 °F - 69.8 °F 74% 29.89 in 10.0 mi NE 12.7 mph - N/A   Light Drizzle
5:55 PM 76.1 °F - 69.6 °F 80% 29.90 in 10.0 mi NNE 16.1 mph 21.9 mph 0.02 in Rain Light Rain
6:32 PM 73.4 °F - 71.6 °F 94% 29.92 in 2.5 mi ENE 12.7 mph - N/A   Light Drizzle
6:33 PM 73.4 °F - 71.6 °F 94% 29.92 in 1.8 mi ENE 13.8 mph - N/A   Scattered Clouds
6:34 PM 73.4 °F - 71.6 °F 94% 29.92 in 1.5 mi ENE 16.1 mph 21.9 mph N/A   Scattered Clouds
6:35 PM 73.4 °F - 71.6 °F 94% 29.92 in 1.0 mi ENE 16.1 mph 21.9 mph N/A   Mist
6:36 PM 73.4 °F - 71.6 °F 94% 29.92 in 1.0 mi ENE 13.8 mph 21.9 mph N/A Rain Light Rain
6:37 PM 73.4 °F - 71.6 °F 94% 29.92 in 0.8 mi NE 13.8 mph 21.9 mph N/A Rain Light Rain
6:40 PM 75.2 °F - 71.6 °F 89% 29.92 in 0.8 mi NNE 8.1 mph 21.9 mph N/A Rain Light Rain
6:45 PM 75.2 °F - 69.8 °F 83% 29.92 in 1.0 mi NNE 6.9 mph - N/A Rain , Thunderstorm Light Rain
6:46 PM 75.2 °F - 69.8 °F 83% 29.92 in 1.2 mi NNE 6.9 mph - N/A Rain , Thunderstorm Light Rain
6:47 PM 75.2 °F - 69.8 °F 83% 29.92 in 1.5 mi NNE 5.8 mph - N/A Rain , Thunderstorm Light Rain
6:49 PM 75.2 °F - 69.8 °F 83% 29.92 in 3.0 mi North 5.8 mph - N/A Rain , Thunderstorm Light Thunderstorms and Rain
6:55 PM 75.2 °F - 70.3 °F 85% 29.92 in 10.0 mi NNE 8.1 mph - 0.06 in Rain , Thunderstorm Light Thunderstorms and Rain
7:32 PM 75.2 °F - 69.8 °F 83% 29.93 in 10.0 mi South 3.5 mph - N/A   Partly Cloudy
7:34 PM 75.2 °F - 71.6 °F 89% 29.93 in 10.0 mi Calm Calm - N/A   Light Drizzle
7:46 PM 75.2 °F - 69.8 °F 83% 29.94 in 10.0 mi Calm Calm - N/A   Clear
7:55 PM 75.2 °F - 70.9 °F 86% 29.93 in 10.0 mi West 3.5 mph - 0.02 in   Clear
8:55 PM 74.7 °F - 71.6 °F 90% 29.94 in 10.0 mi SSW 4.6 mph - N/A   Partly Cloudy
9:55 PM 75.2 °F - 72.1 °F 90% 29.95 in 10.0 mi SSE 3.5 mph - N/A   Mostly Cloudy
10:55 PM 74.3 °F - 72.0 °F 92% 29.96 in 10.0 mi WNW 4.6 mph - N/A   Scattered Clouds
11:55 PM 74.7 °F - 69.6 °F 84% 29.97 in 10.0 mi ENE 5.8 mph - N/A   Partly Cloudy